Date,TemperatureHighF,TemperatureAvgF,TemperatureLowF,DewpointHighF,DewpointAvgF,DewpointLowF,HumidityHigh,HumidityAvg,HumidityLow,PressureMaxIn,PressureMinIn,WindSpeedMaxMPH,WindSpeedAvgMPH,GustSpeedMaxMPH,PrecipitationSumIn
2012-1-1,56,48,41,33,26,15,62,46,20,30.65,30.22,18,7,31,0.00
2012-1-2,48,40,33,26,19,10,72,46,25,30.81,30.61,14,4,16,0.00
2012-1-3,56,47,30,29,26,17,75,46,33,30.61,30.19,17,7,25,0.00
2012-1-4,62,48,39,35,30,27,64,51,34,30.36,30.18,9,4,22,0.00
2012-1-5,64,49,37,34,31,28,73,53,30,30.35,30.04,10,3,13,0.00
2012-1-6,71,56,42,47,42,34,90,61,32,30.04,29.80,15,5,22,0.00
2012-1-7,55,49,43,42,36,28,77,60,49,30.07,29.88,16,5,20,0.00
2012-1-8,53,49,46,43,39,31,84,67,52,30.20,30.06,14,5,15,0.00
2012-1-9,49,45,39,34,30,25,75,57,39,30.25,30.09,12,7,17,0.01
2012-1-10,46,42,39,41,38,34,94,85,63,30.14,29.83,14,5,23,1.53
2012-1-11,62,46,33,43,35,24,91,68,40,30.08,29.66,32,7,39,0.00
2012-1-12,39,32,26,24,8,-2,71,39,18,30.27,30.08,21,8,28,0.00
2012-1-13,54,40,28,29,16,7,64,40,25,30.31,30.20,10,2,12,0.00
2012-1-14,61,47,37,29,25,21,65,44,22,30.33,30.21,11,3,14,0.00
2012-1-15,63,50,35,50,36,27,84,62,39,30.27,30.02,23,8,30,0.00
2012-1-16,71,62,55,60,56,50,91,81,65,30.02,29.79,21,10,31,0.00
2012-1-17,62,42,31,58,28,17,87,59,37,30.42,29.84,24,9,31,0.00
2012-1-18,48,37,27,31,23,16,70,57,41,30.42,30.01,11,4,17,0.00
2012-1-19,64,49,38,40,36,30,85,62,39,30.00,29.84,9,3,13,0.00
2012-1-20,74,51,39,46,37,29,96,61,30,30.02,29.66,19,7,22,0.00
2012-1-21,47,37,27,38,25,18,89,65,44,30.15,29.84,13,6,19,0.00
2012-1-22,72,54,41,53,39,20,96,65,14,29.95,29.55,25,11,42,0.00
2012-1-23,60,49,39,35,29,22,76,51,24,30.16,29.95,7,2,10,0.00
2012-1-24,62,49,42,46,35,28,94,62,35,30.12,29.92,17,7,26,1.04
2012-1-25,48,46,44,46,44,43,95,93,88,30.03,29.86,23,7,26,0.90
2012-1-26,58,48,40,44,37,30,93,70,35,30.05,29.86,13,5,18,0.14
2012-1-27,68,50,38,46,36,29,85,59,39,30.25,29.83,21,8,36,0.00
2012-1-28,50,43,34,30,24,18,71,48,29,30.54,30.25,17,4,27,0.00
2012-1-29,59,45,32,32,27,23,80,52,32,30.47,30.26,15,4,19,0.00
2012-1-30,66,53,40,54,42,32,81,66,47,30.26,30.04,23,8,28,0.00
2012-1-31,72,63,55,56,53,46,88,70,45,30.06,29.93,20,8,27,0.00
2012-2-1,68,54,46,47,42,40,78,65,42,30.18,30.04,10,3,12,0.00
2012-2-2,68,57,45,58,50,39,87,76,66,30.18,29.99,18,6,24,0.00
2012-2-3,69,62,50,65,59,46,97,90,78,30.04,29.83,21,8,25,0.09
2012-2-4,50,45,42,45,36,32,86,73,62,30.37,30.05,18,10,26,0.00
2012-2-5,45,40,37,33,31,30,80,71,60,30.48,30.37,19,7,21,0.00
2012-2-6,54,44,33,38,32,29,87,65,42,30.41,30.22,5,1,9,0.00
2012-2-7,55,48,42,41,38,36,82,68,53,30.43,30.22,13,3,21,0.00
2012-2-8,42,39,36,36,32,30,84,77,65,30.54,30.39,11,4,18,0.00
2012-2-9,45,40,33,42,35,29,94,82,71,30.40,30.14,11,3,15,0.12
2012-2-10,47,40,30,41,34,20,96,80,56,30.44,30.12,17,7,22,0.07
2012-2-11,30,26,22,19,11,7,65,54,44,30.72,30.45,17,7,23,0.00
2012-2-12,40,32,24,30,16,10,94,54,35,30.72,30.28,15,6,25,0.00
2012-2-13,41,35,31,40,34,30,97,95,93,30.27,29.86,14,5,18,0.25
2012-2-14,51,44,39,47,43,38,98,94,85,30.02,29.88,14,6,17,0.00
2012-2-15,70,56,48,58,43,28,98,71,22,30.09,29.83,17,5,24,0.00
2012-2-16,55,48,42,42,40,38,88,75,60,30.31,30.11,13,5,20,0.00
2012-2-17,56,50,44,49,45,40,87,82,75,30.20,30.05,7,2,12,0.00
2012-2-18,53,48,40,47,44,37,93,85,69,30.10,29.95,12,5,18,0.18
2012-2-19,56,45,36,44,39,34,95,80,57,30.18,30.02,7,3,11,0.00
2012-2-20,65,51,43,52,40,20,91,71,21,30.12,29.79,21,9,41,0.01
2012-2-21,68,52,35,44,29,22,72,45,23,30.17,29.85,18,5,29,0.00
2012-2-22,72,60,49,46,39,33,82,50,25,29.85,29.48,9,4,14,0.00
2012-2-23,75,62,50,42,35,27,57,38,24,29.92,29.32,22,9,26,0.00
2012-2-24,56,49,40,26,20,13,49,34,19,30.36,29.93,18,7,31,0.00
2012-2-25,62,50,37,25,22,15,59,36,17,30.40,30.12,18,6,25,0.00
2012-2-26,63,52,43,46,36,24,77,56,37,30.18,30.00,16,8,29,0.00
2012-2-27,63,57,48,50,47,43,83,71,59,30.34,30.18,11,5,16,0.00
2012-2-28,70,63,57,63,57,49,93,81,59,30.18,29.77,18,8,26,0.00
2012-2-29,71,62,52,43,28,22,44,29,16,30.02,29.88,8,2,13,0.00
2012-3-1,82,62,45,64,41,21,88,53,11,29.90,29.52,17,8,29,0.00
2012-3-2,66,56,47,63,38,25,88,54,32,30.00,29.48,18,8,24,0.00
2012-3-3,57,49,42,31,23,13,61,39,19,30.16,30.00,13,4,18,0.00
2012-3-4,71,56,37,30,26,20,60,35,16,30.19,30.09,11,2,18,0.00
2012-3-5,75,64,46,39,34,29,59,35,20,30.31,30.14,16,7,24,0.00
2012-3-6,70,62,54,53,47,32,82,58,37,30.15,29.92,26,12,37,0.00
2012-3-7,69,65,62,61,58,52,86,78,66,29.95,29.85,22,11,28,0.00
2012-3-8,66,48,39,63,44,30,94,83,68,30.43,29.89,27,11,36,0.09
2012-3-9,58,48,38,30,25,21,71,43,23,30.58,30.39,20,7,26,0.00
2012-3-10,54,47,43,45,37,27,95,70,44,30.43,30.10,13,5,23,1.47
2012-3-11,58,51,46,51,48,45,97,90,74,30.13,29.91,11,5,17,0.66
2012-3-12,79,64,51,55,52,44,94,68,32,30.00,29.90,14,6,21,0.00
2012-3-13,76,66,59,63,61,55,98,84,63,30.09,29.98,17,7,25,0.00
2012-3-14,73,69,64,65,63,61,93,82,69,30.10,29.99,18,7,23,0.00
2012-3-15,78,71,66,65,64,62,90,79,63,30.10,30.00,19,9,24,0.00
2012-3-16,78,70,63,65,63,61,97,80,57,30.07,29.92,17,7,31,0.00
2012-3-17,72,70,66,64,62,61,88,78,69,29.99,29.87,21,9,28,0.00
2012-3-18,74,70,66,64,62,60,86,78,68,29.95,29.80,24,11,36,0.00
2012-3-19,76,66,56,65,60,55,96,84,62,29.81,29.61,27,10,41,1.49
2012-3-20,62,56,50,54,51,47,97,84,64,29.83,29.66,10,4,16,0.92
2012-3-21,62,54,48,51,46,35,95,75,40,29.84,29.72,11,4,20,0.20
2012-3-22,54,49,44,50,46,43,96,91,75,29.97,29.77,12,3,22,0.28
2012-3-23,72,58,46,50,46,43,92,67,40,30.08,29.97,11,2,16,0.00
2012-3-24,80,65,53,55,50,46,79,59,36,30.07,29.96,6,2,14,0.00
2012-3-25,81,69,57,58,54,48,81,60,33,30.11,29.98,8,2,14,0.00
2012-3-26,81,70,59,58,56,53,82,62,39,30.06,29.92,18,5,21,0.00
2012-3-27,76,68,59,59,57,55,89,70,49,30.02,29.91,17,7,30,0.00
2012-3-28,78,68,60,65,60,56,91,79,62,30.02,29.89,14,6,24,0.00
2012-3-29,77,66,60,64,61,59,96,87,58,29.92,29.77,13,6,18,0.00
2012-3-30,79,70,62,67,64,61,97,82,60,29.88,29.73,13,5,18,0.00
2012-3-31,81,72,66,69,67,65,96,84,63,29.83,29.74,11,4,16,0.14
2012-4-1,85,75,66,68,66,64,97,77,54,29.76,29.57,15,8,22,0.01
2012-4-2,81,73,65,67,63,57,86,71,58,29.70,29.56,22,10,28,0.00
2012-4-3,66,62,57,63,59,55,96,90,75,29.89,29.67,17,6,44,1.36
2012-4-4,68,60,54,60,52,46,97,75,52,29.90,29.78,10,3,18,0.01
2012-4-5,71,60,49,56,52,46,91,75,54,29.96,29.80,10,4,14,0.00
2012-4-6,72,62,53,59,55,51,95,80,60,30.07,29.96,12,5,17,0.00
2012-4-7,79,66,60,64,59,55,88,79,60,30.23,30.01,15,7,20,0.00
2012-4-8,68,61,58,62,59,56,97,91,75,30.31,30.18,14,4,15,0.91
2012-4-9,71,64,57,63,60,55,96,87,73,30.22,30.05,9,3,14,0.00
2012-4-10,81,71,62,64,62,59,94,74,49,30.11,30.00,8,2,14,0.00
2012-4-11,75,68,61,64,61,56,96,80,65,30.14,30.01,13,5,21,0.00
2012-4-12,73,63,55,64,56,50,85,79,71,30.08,29.86,15,9,25,0.00
2012-4-13,78,72,65,67,64,60,88,78,66,29.92,29.79,17,10,26,0.01
2012-4-14,78,73,69,68,67,65,90,80,72,29.83,29.60,25,11,32,0.00
2012-4-15,75,67,60,68,52,34,92,63,22,29.90,29.54,18,7,31,0.27
2012-4-16,70,62,52,48,44,41,75,54,36,30.21,29.90,13,4,18,0.00
2012-4-17,75,64,52,54,48,45,76,59,38,30.28,30.15,10,4,14,0.00
2012-4-18,76,66,53,58,54,50,88,67,48,30.18,29.94,16,7,22,0.00
2012-4-19,79,69,59,58,53,48,74,58,34,29.94,29.59,19,9,39,0.00
2012-4-20,79,61,53,60,52,46,91,74,35,30.06,29.61,22,8,30,0.02
2012-4-21,75,61,47,52,45,40,82,58,34,30.09,29.97,8,2,14,0.00
2012-4-22,72,64,55,53,45,37,81,52,29,30.20,30.01,16,5,22,0.00
2012-4-23,73,61,50,49,41,35,70,51,26,30.28,30.04,7,3,14,0.00
2012-4-24,85,69,54,59,51,44,76,55,35,30.04,29.75,17,7,28,0.00
2012-4-25,88,77,67,69,64,56,78,65,51,29.76,29.64,24,10,27,0.00
2012-4-26,80,73,67,70,67,64,94,82,68,29.81,29.69,15,5,16,0.00
2012-4-27,88,77,68,68,64,62,89,68,42,29.77,29.62,24,11,29,0.00
2012-4-28,83,76,70,67,65,63,83,70,57,29.84,29.67,20,10,27,0.00
2012-4-29,82,75,68,68,65,62,87,72,58,29.93,29.79,19,9,28,0.00
2012-4-30,83,76,70,71,67,62,86,74,62,29.97,29.80,15,7,22,0.04
2012-5-1,85,75,64,68,66,60,93,74,53,29.91,29.72,21,10,32,0.12
2012-5-2,80,75,68,69,66,64,90,76,66,29.85,29.75,19,10,27,0.00
2012-5-3,91,80,70,71,68,65,87,69,51,29.89,29.78,24,9,25,0.00
2012-5-4,90,80,73,72,67,49,83,65,32,29.89,29.71,22,8,32,0.00
2012-5-5,90,80,69,73,66,53,76,63,43,29.84,29.70,19,8,24,0.00
2012-5-6,84,78,73,71,69,63,91,73,49,29.82,29.72,14,7,19,0.00
2012-5-7,73,70,66,66,64,60,89,80,71,29.95,29.77,15,6,20,0.00
2012-5-8,71,64,58,60,56,51,88,75,51,30.07,29.95,11,5,21,0.01
2012-5-9,80,69,57,55,49,42,79,52,29,30.09,29.94,14,3,14,0.00
2012-5-10,80,70,59,53,50,44,75,51,30,29.96,29.83,14,4,18,0.00
2012-5-11,70,63,60,62,59,53,94,89,55,30.01,29.82,11,5,17,0.46
2012-5-12,72,65,60,62,59,56,95,83,59,30.17,30.01,11,4,17,0.00
2012-5-13,77,69,59,62,58,56,90,70,51,30.20,30.08,12,4,16,0.04
2012-5-14,78,70,62,60,56,53,82,63,43,30.14,30.02,11,4,16,0.00
2012-5-15,83,72,60,58,55,51,81,57,35,30.09,29.97,9,2,10,0.00
2012-5-16,87,75,62,60,56,51,82,55,31,30.05,29.95,8,2,11,0.00
2012-5-17,87,76,64,61,57,52,77,53,31,30.00,29.84,15,5,18,0.00
2012-5-18,86,77,66,62,58,55,78,55,35,29.90,29.75,22,8,29,0.00
2012-5-19,86,77,67,64,60,57,81,59,41,29.92,29.81,23,10,33,0.00
2012-5-20,86,74,66,64,60,54,79,63,35,30.12,29.92,15,6,25,0.00
2012-5-21,83,73,63,63,60,57,87,65,43,30.18,30.05,10,4,16,0.00
2012-5-22,87,75,62,63,57,52,72,56,41,30.07,29.77,11,5,18,0.00
2012-5-23,90,80,68,66,62,50,78,55,30,29.78,29.49,22,11,33,0.00
2012-5-24,90,82,73,71,68,65,80,65,52,29.64,29.49,22,12,28,0.00
2012-5-25,91,82,74,71,69,68,83,67,48,29.87,29.64,25,10,33,0.00
2012-5-26,88,81,74,71,68,65,84,66,49,29.96,29.86,17,9,24,0.00
2012-5-27,89,80,70,68,64,60,84,60,40,29.92,29.76,19,9,24,0.00
2012-5-28,92,80,71,71,66,58,78,62,48,29.86,29.72,16,7,29,0.09
2012-5-29,90,80,68,72,67,59,79,64,53,29.89,29.73,16,6,19,0.00
2012-5-30,86,74,65,70,62,57,92,68,38,29.93,29.68,22,8,33,0.59
2012-5-31,80,73,66,62,57,49,80,58,40,29.99,29.66,17,7,26,0.00
2012-6-1,78,65,58,55,51,49,75,60,42,30.04,29.88,11,4,21,0.00
2012-6-2,92,75,58,72,61,50,82,64,45,29.93,29.76,12,4,16,0.00
2012-6-3,91,82,72,73,69,64,79,66,54,29.86,29.73,19,7,24,0.00
2012-6-4,86,79,69,73,69,65,90,72,63,29.92,29.73,13,5,19,0.03
2012-6-5,93,80,73,74,68,65,86,68,41,29.86,29.70,11,3,27,0.11
2012-6-6,82,73,66,69,66,63,96,80,65,29.87,29.73,15,6,32,0.75
2012-6-7,74,68,64,66,64,61,96,87,64,30.04,29.88,10,4,13,0.50
2012-6-8,84,75,65,64,61,57,89,63,41,30.03,29.86,9,3,14,0.00
2012-6-9,87,78,68,69,66,60,80,66,52,29.88,29.68,17,5,20,0.00
2012-6-10,90,82,74,73,70,68,83,69,52,29.72,29.67,22,10,30,0.00
2012-6-11,96,84,71,78,74,67,90,72,48,29.96,29.69,13,7,23,0.91
2012-6-12,83,76,67,70,67,65,93,76,60,30.13,29.95,13,4,21,0.07
2012-6-13,76,72,68,71,68,66,94,87,77,30.04,29.89,9,4,14,0.19
2012-6-14,90,80,71,75,72,68,91,77,57,29.92,29.79,15,7,22,0.00
2012-6-15,85,77,71,75,70,66,89,80,70,29.96,29.83,12,6,18,0.00
2012-6-16,88,79,71,74,70,67,89,75,52,30.02,29.93,19,7,19,0.00
2012-6-17,88,78,72,75,71,67,90,78,61,30.00,29.78,15,6,24,0.41
2012-6-18,88,80,72,71,69,67,90,70,52,29.80,29.73,24,9,28,0.00
2012-6-19,89,80,73,72,69,67,88,71,53,29.87,29.77,19,11,28,0.00
2012-6-20,88,80,74,72,70,67,85,71,53,29.94,29.86,22,9,24,0.00
2012-6-21,89,80,72,72,70,68,89,73,55,30.04,29.91,10,5,19,0.00
2012-6-22,93,82,72,74,71,69,90,70,48,29.99,29.84,6,2,8,0.00
2012-6-23,93,84,76,74,70,65,84,62,41,29.90,29.83,12,5,17,0.00
2012-6-24,95,85,74,70,66,64,76,55,36,29.95,29.86,8,3,13,0.00
2012-6-25,101,89,76,71,68,65,72,51,31,29.92,29.77,8,2,11,0.00
2012-6-26,101,91,80,75,69,65,68,51,32,29.81,29.71,8,2,11,0.00
2012-6-27,97,87,79,75,69,59,75,57,36,29.91,29.76,11,6,16,0.00
2012-6-28,97,87,76,68,63,58,66,46,29,29.99,29.90,17,6,21,0.00
2012-6-29,95,86,76,71,66,61,76,53,33,29.96,29.81,16,6,21,0.00
2012-6-30,94,85,76,70,68,66,76,58,41,29.88,29.79,14,6,20,0.00
2012-7-1,90,82,74,72,69,67,83,67,47,29.96,29.86,19,7,25,0.00
2012-7-2,89,82,73,73,69,65,86,67,49,30.03,29.92,19,7,22,0.00
2012-7-3,95,85,76,71,65,60,77,53,32,30.00,29.84,18,7,22,0.00
2012-7-4,94,85,75,70,67,63,79,56,37,29.96,29.85,17,7,19,0.00
2012-7-5,96,86,76,71,66,61,76,53,32,29.98,29.88,17,6,19,0.00
2012-7-6,97,87,76,69,67,64,75,52,34,30.00,29.89,14,4,15,0.00
2012-7-7,97,84,77,71,68,65,77,58,36,30.00,29.92,16,4,28,0.00
2012-7-8,96,84,72,71,69,66,85,62,39,30.01,29.86,8,3,14,0.00
2012-7-9,90,80,75,74,71,67,88,74,56,29.95,29.85,13,3,24,0.14
2012-7-10,92,80,72,73,70,66,94,75,47,29.96,29.85,22,4,27,0.00
2012-7-11,94,83,73,71,66,59,89,61,33,29.98,29.85,14,4,21,0.00
2012-7-12,94,83,74,72,69,64,85,64,38,29.95,29.86,12,3,16,0.00
2012-7-13,93,83,73,73,70,66,91,66,42,29.99,29.89,13,4,17,0.00
2012-7-14,93,82,73,72,69,61,84,66,45,30.02,29.88,14,4,28,0.00
2012-7-15,90,79,68,71,68,64,91,70,45,30.02,29.89,10,4,15,0.00
2012-7-16,92,82,71,71,69,66,90,67,45,29.98,29.83,20,7,21,0.00
2012-7-17,96,86,75,71,67,63,82,56,35,29.94,29.82,17,7,21,0.00
2012-7-18,98,87,75,71,68,64,81,55,34,29.97,29.85,15,5,18,0.00
2012-7-19,102,90,77,71,66,60,73,48,26,30.03,29.89,11,4,16,0.00
2012-7-20,106,92,80,68,65,61,61,43,23,29.99,29.85,8,2,14,0.00
2012-7-21,104,93,80,67,62,53,62,38,18,29.92,29.81,10,3,18,0.00
2012-7-22,97,89,79,73,71,67,79,57,40,29.96,29.87,11,6,21,0.00
2012-7-23,96,89,78,71,68,65,74,50,37,30.04,29.94,14,7,19,0.00
2012-7-24,95,87,78,71,68,66,72,55,39,30.02,29.84,16,8,21,0.00
2012-7-25,98,89,80,72,69,66,75,54,36,29.88,29.73,17,9,24,0.00
2012-7-26,98,86,79,74,70,66,76,61,38,29.88,29.76,20,6,28,0.00
2012-7-27,96,86,76,75,72,67,89,65,39,30.00,29.87,11,3,16,0.00
2012-7-28,102,90,76,72,67,58,83,52,25,30.06,29.93,12,4,18,0.00
2012-7-29,104,92,79,67,62,53,58,38,20,30.01,29.86,15,4,19,0.00
2012-7-30,104,92,80,66,61,53,54,37,19,29.95,29.82,12,5,19,0.00
2012-7-31,105,92,77,68,64,56,63,41,22,29.91,29.80,9,5,15,0.00
2012-8-1,108,94,81,68,65,62,62,41,23,29.86,29.72,14,6,18,0.00
2012-8-2,107,95,80,65,62,59,58,36,22,29.78,29.66,17,7,20,0.00
2012-8-3,105,93,80,70,66,62,66,43,26,29.78,29.69,18,8,25,0.00
2012-8-4,102,92,81,70,66,59,66,44,25,29.92,29.75,18,8,22,0.00
2012-8-5,101,91,81,70,68,65,63,48,34,30.09,29.92,10,4,16,0.00
2012-8-6,104,92,80,70,67,62,63,45,26,30.04,29.85,15,4,16,0.00
2012-8-7,105,88,79,74,69,63,77,56,26,29.92,29.82,15,3,23,0.14
2012-8-8,99,87,76,73,69,64,80,58,35,29.97,29.80,16,4,23,0.00
2012-8-9,106,89,73,71,63,51,83,49,16,29.91,29.75,14,5,19,0.00
2012-8-10,94,85,76,64,56,49,62,39,22,29.95,29.83,16,6,22,0.00
2012-8-11,93,82,70,61,54,50,52,38,25,29.99,29.85,11,4,15,0.00
2012-8-12,105,85,74,70,66,60,72,55,25,29.93,29.75,16,6,25,0.01
2012-8-13,98,87,78,70,59,50,72,41,22,29.99,29.86,11,4,19,0.00
2012-8-14,96,80,69,73,62,51,92,59,34,29.95,29.74,17,6,25,1.03
2012-8-15,91,79,71,73,70,67,94,76,48,29.91,29.80,13,5,19,0.18
2012-8-16,82,78,75,74,70,67,86,76,61,29.98,29.86,9,3,15,0.01
2012-8-17,94,82,70,70,66,59,91,61,38,30.01,29.84,8,3,12,0.00
2012-8-18,82,74,67,71,68,64,94,82,56,29.96,29.78,16,6,25,0.38
2012-8-19,88,74,65,70,61,47,97,69,25,29.98,29.87,12,3,19,0.01
2012-8-20,90,78,67,64,59,52,81,55,29,30.01,29.87,9,2,11,0.00
2012-8-21,86,77,70,65,62,59,77,60,44,30.06,29.96,11,3,17,0.00
2012-8-22,88,77,66,65,60,52,87,59,32,30.12,29.97,15,4,22,0.00
2012-8-23,90,80,70,66,61,57,73,54,38,30.04,29.90,17,7,22,0.00
2012-8-24,88,81,74,71,67,61,82,63,47,29.94,29.78,13,6,20,0.00
2012-8-25,91,83,75,74,70,64,90,66,41,29.85,29.76,21,9,29,0.14
2012-8-26,88,78,72,74,71,68,94,81,56,30.00,29.85,12,4,19,0.01
2012-8-27,92,82,71,74,69,66,95,69,43,30.06,29.92,14,4,18,0.00
2012-8-28,94,84,75,72,65,51,82,56,24,30.01,29.87,14,6,20,0.00
2012-8-29,94,82,71,57,52,43,56,37,18,29.94,29.79,14,6,21,0.00
2012-8-30,96,85,75,67,60,50,58,43,33,29.84,29.70,17,6,25,0.00
2012-8-31,98,86,75,69,66,60,74,53,30,29.89,29.76,9,3,15,0.00
2012-9-1,102,88,77,71,68,61,74,53,27,29.98,29.85,11,3,15,0.00
2012-9-2,100,88,76,72,68,63,82,53,30,29.94,29.82,15,5,20,0.00
2012-9-3,101,90,77,68,66,64,71,48,31,29.92,29.79,12,4,16,0.00
2012-9-4,103,87,76,70,67,63,72,53,30,29.88,29.74,11,4,17,0.00
2012-9-5,102,86,74,72,67,61,81,55,30,29.83,29.71,17,4,31,0.46
2012-9-6,96,85,77,71,68,66,78,59,37,29.91,29.78,8,1,15,0.00
2012-9-7,104,87,67,68,64,58,85,49,24,29.97,29.67,21,6,34,0.04
2012-9-8,83,72,62,62,52,45,91,54,27,30.14,30.00,14,6,27,0.08
2012-9-9,91,76,60,51,47,44,65,39,20,30.16,30.02,5,2,9,0.00
2012-9-10,91,78,63,55,49,46,63,38,22,30.11,29.96,11,2,14,0.00
2012-9-11,89,78,67,57,52,50,61,43,27,30.07,29.94,18,6,22,0.00
2012-9-12,89,79,68,68,60,54,74,54,36,30.04,29.93,15,7,21,0.00
2012-9-13,77,71,66,70,63,57,86,76,49,30.19,29.98,11,4,14,0.05
2012-9-14,65,62,60,61,58,57,92,88,81,30.25,30.16,11,6,16,0.03
2012-9-15,73,64,59,62,58,57,92,81,67,30.23,30.10,6,2,10,0.00
2012-9-16,71,67,63,63,61,59,93,82,70,30.12,29.96,5,2,8,0.02
2012-9-17,80,70,63,64,62,61,96,79,55,29.97,29.80,9,2,11,0.00
2012-9-18,79,70,64,62,49,39,85,53,26,30.11,29.89,19,6,25,0.00
2012-9-19,87,71,58,51,47,44,76,44,24,30.13,29.98,14,6,20,0.00
2012-9-20,93,78,63,61,55,49,65,46,29,30.03,29.88,13,5,19,0.00
2012-9-21,94,80,67,59,54,46,73,44,19,29.97,29.86,16,4,22,0.00
2012-9-22,97,82,66,57,52,48,62,39,19,30.07,29.91,13,3,18,0.00
2012-9-23,94,78,63,57,53,48,60,44,24,30.16,30.02,11,4,14,0.00
2012-9-24,93,79,62,65,58,52,80,53,25,30.09,29.89,16,7,25,0.00
2012-9-25,92,83,73,65,60,55,70,48,28,29.94,29.78,23,10,29,0.00
2012-9-26,91,78,67,70,65,59,91,66,43,29.99,29.86,17,7,25,0.23
2012-9-27,86,75,67,67,64,56,87,70,39,30.08,29.98,14,5,26,0.00
2012-9-28,82,74,67,69,67,65,95,80,59,30.08,29.96,6,2,10,0.00
2012-9-29,73,68,64,69,66,62,96,92,86,30.01,29.92,13,3,18,0.63
2012-9-30,73,66,63,64,61,58,97,86,62,29.94,29.86,8,4,13,0.28
2012-10-1,81,69,58,58,53,47,93,62,31,29.90,29.80,15,5,22,0.00
2012-10-2,78,68,61,55,51,48,74,56,36,29.98,29.88,11,4,14,0.00
2012-10-3,81,69,58,57,52,50,81,57,37,30.00,29.90,13,4,18,0.00
2012-10-4,79,69,62,67,59,53,78,71,59,30.12,30.00,16,6,21,0.00
2012-10-5,65,59,50,56,50,42,79,72,66,30.18,30.06,17,7,26,0.00
2012-10-6,50,48,47,43,37,32,78,67,54,30.32,30.17,19,8,23,0.00
2012-10-7,53,48,43,35,32,26,70,55,37,30.38,30.24,9,3,16,0.01
2012-10-8,64,54,39,41,36,33,84,53,33,30.29,30.06,10,4,16,0.00
2012-10-9,78,63,51,61,54,44,85,71,55,30.08,29.83,17,7,26,0.00
2012-10-10,65,62,58,59,55,51,92,79,65,30.21,30.01,17,6,23,0.00
2012-10-11,80,71,63,70,64,57,92,80,67,30.15,30.03,12,5,21,0.00
2012-10-12,84,76,68,69,68,66,93,77,57,30.15,30.03,12,6,18,0.00
2012-10-13,81,73,66,71,67,60,95,83,67,30.04,29.72,25,9,36,0.70
2012-10-14,78,68,56,60,51,45,80,57,31,30.09,29.79,17,4,19,0.00
2012-10-15,83,68,56,54,50,48,75,55,30,30.11,29.93,10,3,12,0.00
2012-10-16,76,67,60,61,55,50,84,66,48,29.95,29.61,20,8,32,0.00
2012-10-17,81,71,63,66,56,35,91,63,35,29.84,29.48,19,8,28,0.00
2012-10-18,71,61,51,36,31,24,51,34,19,30.02,29.83,13,4,18,0.00
2012-10-19,75,61,48,36,31,19,55,35,15,30.02,29.87,15,3,16,0.00
2012-10-20,83,69,55,66,51,34,78,53,36,29.88,29.69,20,7,23,0.00
2012-10-21,86,78,70,71,69,65,89,74,56,29.81,29.72,22,11,28,0.00
2012-10-22,78,72,67,69,67,64,90,83,71,29.96,29.80,26,8,30,0.11
2012-10-23,83,74,68,70,67,66,93,81,62,29.93,29.81,18,9,25,0.00
2012-10-24,79,72,66,68,65,64,91,79,62,29.93,29.77,18,8,24,0.00
2012-10-25,73,62,48,66,53,38,87,73,58,30.16,29.74,20,9,28,0.00
2012-10-26,53,46,40,38,33,27,80,62,40,30.39,30.16,22,9,26,0.00
2012-10-27,56,45,34,31,28,24,77,53,29,30.41,30.22,11,4,15,0.00
2012-10-28,60,48,38,32,29,27,71,49,30,30.36,30.22,12,3,17,0.00
2012-10-29,66,53,40,34,29,26,66,42,23,30.33,30.13,10,3,14,0.00
2012-10-30,76,58,44,45,39,33,73,51,30,30.13,29.92,8,3,12,0.00
2012-10-31,78,64,52,48,45,42,73,53,33,30.04,29.93,9,2,12,0.00
2012-11-1,85,68,52,53,48,44,77,54,28,30.04,29.89,8,2,17,0.00
2012-11-2,86,71,56,59,52,49,81,54,29,29.96,29.84,15,5,22,0.00
2012-11-3,72,64,56,56,46,37,77,53,36,30.13,29.91,12,5,17,0.00
2012-11-4,70,59,48,50,43,37,79,58,44,30.19,30.06,8,3,13,0.00
2012-11-5,70,58,50,51,42,30,92,60,24,30.14,30.03,26,5,31,0.00
2012-11-6,72,56,42,43,40,36,80,56,34,30.17,30.06,6,2,12,0.00
2012-11-7,72,59,47,40,35,30,71,44,24,30.21,30.07,8,3,10,0.00
2012-11-8,78,64,50,57,48,36,74,56,44,30.09,29.90,21,9,31,0.00
2012-11-9,79,71,64,62,59,55,86,67,51,29.97,29.84,22,12,31,0.00
2012-11-10,77,70,65,60,59,55,82,68,53,29.95,29.75,27,14,34,0.00
2012-11-11,71,56,38,63,49,29,93,78,71,30.31,29.73,22,9,38,0.51
2012-11-12,54,42,32,29,25,21,76,52,30,30.55,30.31,8,2,10,0.00
2012-11-13,57,46,35,33,26,20,84,50,24,30.55,30.35,12,3,15,0.00
2012-11-14,60,49,39,33,30,27,69,49,30,30.45,30.29,8,4,16,0.00
2012-11-15,60,49,39,35,32,29,70,54,37,30.38,30.26,11,4,14,0.00
2012-11-16,63,52,40,37,33,31,74,52,31,30.46,30.35,7,2,10,0.00
2012-11-17,62,51,40,36,31,29,70,50,29,30.44,30.30,11,4,15,0.00
2012-11-18,63,55,47,39,36,29,64,51,37,30.31,30.18,16,6,22,0.00
2012-11-19,72,63,56,56,49,38,81,61,45,30.20,30.09,18,6,18,0.00
2012-11-20,78,64,50,57,52,47,90,67,38,30.23,30.13,5,1,9,0.00
2012-11-21,77,64,52,54,49,46,85,61,35,30.27,30.09,13,4,21,0.00
2012-11-22,73,65,57,55,51,46,75,62,51,30.10,29.97,19,7,30,0.00
2012-11-23,63,55,41,55,31,22,77,43,26,30.48,30.11,22,10,34,0.00
2012-11-24,58,46,34,28,23,20,62,42,23,30.47,30.10,13,5,20,0.00
2012-11-25,71,56,42,51,36,26,69,48,34,30.09,29.82,17,7,23,0.00
2012-11-26,63,54,42,56,45,27,92,71,52,30.33,29.83,17,8,25,0.00
2012-11-27,55,42,32,34,30,26,82,62,42,30.50,30.33,14,5,20,0.00
2012-11-28,63,49,37,41,37,32,93,66,42,30.44,30.26,13,6,19,0.00
2012-11-29,67,54,42,43,38,35,78,58,31,30.26,30.07,19,6,25,0.00
2012-11-30,70,60,50,58,54,44,94,81,64,30.12,29.99,19,8,22,0.00
2012-12-1,79,69,60,62,60,56,93,75,49,30.02,29.87,24,11,28,0.00
2012-12-2,79,69,61,64,60,58,93,75,55,30.06,29.94,18,8,24,0.00
2012-12-3,78,70,63,61,60,58,88,72,52,29.95,29.82,27,12,32,0.00
2012-12-4,68,60,51,61,34,21,81,41,17,30.31,29.93,18,7,26,0.00
2012-12-5,64,53,44,46,36,25,82,55,38,30.32,30.06,9,4,11,0.00
2012-12-6,66,56,49,51,49,45,96,77,53,30.05,29.78,16,8,22,0.00
2012-12-7,56,52,48,51,49,45,95,89,78,29.91,29.80,8,3,10,0.00
2012-12-8,57,50,43,49,46,42,96,86,74,29.95,29.79,7,2,11,0.00
2012-12-9,55,48,32,54,40,12,97,78,41,30.12,29.73,24,8,29,0.00
2012-12-10,39,31,24,24,16,11,91,55,35,30.23,30.11,19,6,28,0.00
2012-12-11,48,36,24,20,16,13,72,47,26,30.27,30.16,9,2,11,0.00
2012-12-12,54,41,28,24,20,14,68,45,27,30.34,30.20,15,6,22,0.00
2012-12-13,61,48,36,31,26,21,55,43,30,30.30,30.16,20,8,23,0.00
2012-12-14,55,51,48,54,39,25,94,66,41,30.19,29.82,14,8,23,0.23
2012-12-15,63,57,51,52,37,32,88,50,33,29.88,29.79,14,6,24,0.00
2012-12-16,70,59,49,38,33,24,64,40,19,29.82,29.67,10,3,22,0.00
2012-12-17,58,46,37,38,36,34,89,70,44,29.93,29.76,8,3,12,0.00
2012-12-18,69,53,40,36,34,32,82,52,26,29.84,29.77,9,3,11,0.00
2012-12-19,72,62,44,61,49,26,93,66,28,29.78,29.53,25,7,32,0.00
2012-12-20,48,41,36,29,14,2,63,37,15,30.44,29.80,38,11,40,0.00
2012-12-21,64,45,28,16,11,6,49,28,11,30.47,30.30,11,3,16,0.00
2012-12-22,62,51,37,44,23,9,66,37,14,30.29,30.00,18,6,23,0.00
2012-12-23,58,51,39,48,39,26,91,66,37,30.00,29.83,10,4,14,0.00
2012-12-24,49,37,27,26,24,21,77,60,38,30.09,29.89,12,5,19,0.00
2012-12-25,37,30,24,34,27,19,93,87,66,30.23,29.78,16,4,25,0.31
2012-12-26,30,23,16,21,16,10,82,76,68,30.36,30.19,12,4,17,0.00
2012-12-27,35,29,24,32,26,20,95,88,82,30.19,29.95,13,5,17,0.04
2012-12-28,34,32,25,32,27,19,96,84,66,30.25,29.97,15,5,18,0.03
2012-12-29,46,32,21,27,20,14,77,64,43,30.49,30.26,7,3,12,0.01
2012-12-30,43,36,28,33,26,22,88,68,47,30.47,30.26,14,6,19,0.09
2012-12-31,43,38,35,42,37,33,96,94,89,30.27,30.00,9,2,19,0.37
2013-1-1,37,34,31,36,31,27,97,89,81,30.34,30.09,12,6,16,0.00